Stations météo

réclame
Mon MeteoGroup
Meierwik, Allemagne (10033): Température de l'air & dewpoint: 09.09.2019 12:00:00 - 15.09.2019 12:00:00 (CEST)Meierwik, Allemagne (10033): Vitesse du vent & gusts: 09.09.2019 12:00:00 - 15.09.2019 12:00:00 (CEST)Meierwik, Allemagne (10033): Direction du vent: 09.09.2019 12:00:00 - 15.09.2019 12:00:00 (CEST)Meierwik, Allemagne (10033): reduced air pressure: 09.09.2019 12:00:00 - 15.09.2019 12:00:00 (CEST)Meierwik, Allemagne (10033): visibility: 09.09.2019 12:00:00 - 15.09.2019 12:00:00 (CEST)
Date & Time tt [°C] td [°C] ff [km/h] ff [knt] fx [km/h] fx [knt] dd ppp [hPa] vv [km]
15.09.2019 12:00:00 15,6 14,2 43 23 72 39 W 1015,4 -
15.09.2019 11:00:00 16,0 14,2 43 23 - - W 1015,2 -
15.09.2019 10:00:00 16,0 13,7 47 25 68 37 W 1015,2 -
15.09.2019 09:00:00 16,6 13,2 40 21 61 33 W 1015,5 -
15.09.2019 08:00:00 15,5 12,4 29 16 - - WSW 1016,0 -
15.09.2019 07:00:00 14,8 11,4 32 18 54 29 WSW 1016,3 -
15.09.2019 06:00:00 14,6 11,2 32 18 58 31 WSW 1017,4 25
15.09.2019 05:00:00 14,1 10,9 29 16 - - WSW 1018,4 25
15.09.2019 04:00:00 13,7 10,8 25 14 - - SW 1019,5 20
15.09.2019 03:00:00 12,9 10,7 22 12 - - SW 1020,4 20
15.09.2019 02:00:00 12,6 10,5 22 12 - - SW 1021,9 20
15.09.2019 01:00:00 12,7 10,3 25 14 - - SW 1023,1 20
15.09.2019 00:00:00 12,4 9,5 22 12 - - SW 1024,5 20
14.09.2019 23:00:00 12,3 9,3 22 12 - - SW 1025,2 25
14.09.2019 22:00:00 12,7 9,5 22 12 - - SW 1026,4 25
14.09.2019 21:00:00 13,2 9,6 18 10 - - SW 1027,4 25
14.09.2019 20:00:00 14,0 9,7 18 10 - - SW 1028,2 25
14.09.2019 19:00:00 15,2 8,8 22 12 - - W 1028,7 25
14.09.2019 18:00:00 16,4 8,1 25 14 - - W 1029,1 -
14.09.2019 17:00:00 16,4 8,3 29 16 - - W 1030,4 -
14.09.2019 16:00:00 16,7 6,9 22 12 - - WSW 1030,9 -
14.09.2019 15:00:00 17,4 7,9 29 16 - - W 1031,8 -
14.09.2019 14:00:00 16,6 9,1 25 14 - - W 1032,4 -
14.09.2019 13:00:00 16,9 8,7 25 14 - - W 1032,9 -
14.09.2019 12:00:00 15,5 9,4 25 14 - - W 1033,4 -
14.09.2019 11:00:00 15,7 9,9 18 10 - - W 1033,3 -
14.09.2019 10:00:00 14,6 9,2 14 8 - - W 1034,0 -
14.09.2019 09:00:00 11,2 9,2 11 6 - - W 1033,7 -
14.09.2019 08:00:00 9,0 8,4 14 8 - - W 1033,5 -
14.09.2019 07:00:00 8,2 8,0 14 8 - - W 1033,5 -
14.09.2019 06:00:00 8,0 7,8 14 8 - - W 1033,4 12
14.09.2019 05:00:00 7,5 7,2 14 8 - - W 1033,6 12
14.09.2019 04:00:00 7,9 7,6 14 8 - - W 1034,0 12
14.09.2019 03:00:00 8,1 7,7 11 6 - - W 1034,0 20
14.09.2019 02:00:00 8,5 7,9 11 6 - - WNW 1033,9 25
14.09.2019 01:00:00 9,8 8,7 18 10 - - WNW 1033,8 25
14.09.2019 00:00:00 9,7 8,8 18 10 - - WNW 1033,8 25
13.09.2019 23:00:00 10,7 9,0 18 10 - - WNW 1033,4 25
13.09.2019 22:00:00 12,4 9,3 18 10 - - WNW 1032,9 25
13.09.2019 21:00:00 13,2 9,2 18 10 - - NW 1032,6 25
13.09.2019 20:00:00 14,2 9,4 25 14 - - NW 1032,2 30
13.09.2019 19:00:00 15,2 9,5 32 18 - - NW 1031,8 30
13.09.2019 18:00:00 15,6 8,7 29 16 50 27 NW 1031,1 30
13.09.2019 17:00:00 16,8 8,9 36 19 - - NNW 1031,1 30
13.09.2019 16:00:00 16,2 10,0 40 21 54 29 NW 1030,8 30
13.09.2019 15:00:00 17,4 7,9 40 21 54 29 NW 1030,4 30
13.09.2019 14:00:00 16,6 8,1 43 23 - - NW 1029,8 30
13.09.2019 13:00:00 16,1 8,4 36 19 50 27 NNW 1029,1 30
13.09.2019 12:00:00 16,8 9,7 32 18 54 29 NW 1028,7 30
13.09.2019 11:00:00 16,1 9,3 36 19 - - NW 1028,0 30
13.09.2019 10:00:00 15,4 10,8 36 19 47 25 NNW 1026,8 25
13.09.2019 09:00:00 14,5 12,4 22 12 - - NNW 1025,7 25
13.09.2019 08:00:00 14,4 12,8 22 12 - - NNW 1024,7 20
13.09.2019 07:00:00 14,6 13,3 29 16 47 25 NNW 1023,5 12
13.09.2019 06:00:00 15,7 14,7 32 18 54 29 NNW 1021,6 10
13.09.2019 05:00:00 16,6 15,8 41 22 - - WNW 1020,7 4,0
13.09.2019 04:00:00 17,5 16,5 40 21 58 31 W 1020,4 12
13.09.2019 03:00:00 16,9 16,1 29 16 47 25 WSW 1020,7 12
13.09.2019 02:00:00 16,4 15,3 22 12 - - SW 1021,2 15
13.09.2019 01:00:00 16,7 14,0 22 12 - - SW 1022,0 15
13.09.2019 00:00:00 16,7 13,3 18 10 - - WSW 1022,7 15
12.09.2019 23:00:00 16,4 13,2 18 10 - - WSW 1023,3 15
12.09.2019 22:00:00 15,9 12,7 18 10 - - SW 1023,6 20
12.09.2019 21:00:00 16,4 12,6 22 12 - - WSW 1023,7 20
12.09.2019 20:00:00 16,4 12,4 18 10 - - WSW 1023,8 20
12.09.2019 19:00:00 17,1 12,5 29 16 50 27 W 1023,8 25
12.09.2019 18:00:00 18,0 11,9 36 19 50 27 W 1023,8 25
12.09.2019 17:00:00 18,7 12,5 32 18 - - W 1023,9 25
12.09.2019 16:00:00 17,7 13,4 40 21 47 25 W 1024,0 25
12.09.2019 15:00:00 18,3 13,4 32 18 50 27 W 1023,9 25
12.09.2019 14:00:00 17,8 13,3 32 18 - - W 1023,7 20
12.09.2019 13:00:00 17,8 12,4 36 19 47 25 W 1023,4 20
12.09.2019 12:00:00 18,9 13,1 18 10 - - WSW 1023,3 20
12.09.2019 11:00:00 17,3 13,5 22 12 - - W 1022,9 20
12.09.2019 10:00:00 16,0 13,1 18 10 - - WSW 1022,4 20
12.09.2019 09:00:00 14,5 12,2 18 10 - - SW 1021,8 20
12.09.2019 08:00:00 13,6 11,8 14 8 - - SW 1021,4 20
12.09.2019 07:00:00 13,0 11,4 14 8 - - SW 1020,9 20
12.09.2019 06:00:00 13,8 11,5 22 12 - - WSW 1020,2 25
12.09.2019 05:00:00 13,0 11,6 14 8 - - W 1020,2 25
12.09.2019 04:00:00 13,3 11,9 22 12 - - W 1019,6 25
12.09.2019 03:00:00 13,8 12,3 18 10 - - WSW 1019,2 20
12.09.2019 02:00:00 13,2 11,9 18 10 - - WSW 1018,6 20
12.09.2019 01:00:00 13,7 12,2 22 12 - - W 1018,0 20
12.09.2019 00:00:00 14,1 13,0 22 12 - - W 1017,3 15
11.09.2019 23:00:00 15,6 14,8 25 14 - - W 1016,6 15
11.09.2019 22:00:00 15,4 14,9 22 12 50 27 WSW 1015,9 12
11.09.2019 21:00:00 14,5 13,9 25 14 54 29 SW 1015,1 3,0
11.09.2019 20:00:00 14,0 13,3 29 16 - - SW 1014,7 3,5
11.09.2019 19:00:00 13,5 12,7 29 16 50 27 SSW 1014,9 3,0
11.09.2019 18:00:00 13,3 12,4 32 18 61 33 SSW 1015,1 8
11.09.2019 17:00:00 13,7 12,4 36 19 - - SW 1015,4 8
11.09.2019 16:00:00 15,3 12,8 32 18 58 31 WSW 1015,7 12
11.09.2019 15:00:00 15,5 13,4 29 16 61 33 SW 1015,6 8
11.09.2019 14:00:00 17,0 12,5 32 18 - - SW 1015,9 15
11.09.2019 13:00:00 17,3 12,0 29 16 58 31 SW 1016,0 15
11.09.2019 12:00:00 17,0 11,5 29 16 50 27 SW 1016,3 15
11.09.2019 11:00:00 16,5 12,8 22 12 - - SW 1016,4 15
11.09.2019 10:00:00 14,5 12,3 25 14 - - SSW 1016,5 12
11.09.2019 09:00:00 12,8 11,4 25 14 - - SSW 1016,4 10
11.09.2019 08:00:00 12,2 11,0 22 12 - - SSW 1016,7 20
11.09.2019 07:00:00 11,3 9,9 22 12 - - SSW 1016,7 20
11.09.2019 06:00:00 11,6 10,2 22 12 - - SW 1016,7 20
11.09.2019 05:00:00 11,8 10,4 22 12 - - WSW 1017,0 20
11.09.2019 04:00:00 12,0 10,7 22 12 - - SW 1017,1 20
11.09.2019 03:00:00 12,4 10,7 22 12 - - WSW 1017,2 20
11.09.2019 02:00:00 12,5 11,1 18 10 - - WSW 1017,1 20
11.09.2019 01:00:00 13,1 11,7 18 10 - - W 1016,6 20
11.09.2019 00:00:00 14,3 13,0 25 14 - - W 1016,6 20
10.09.2019 23:00:00 14,5 13,8 22 12 - - WNW 1016,1 20
10.09.2019 22:00:00 14,9 13,6 32 18 - - WNW 1015,7 20
10.09.2019 21:00:00 14,9 13,5 25 14 - - W 1015,2 20
10.09.2019 20:00:00 15,2 13,6 32 18 - - W 1014,6 20
10.09.2019 19:00:00 15,2 13,3 36 19 50 27 WNW 1014,3 20
10.09.2019 18:00:00 15,8 13,7 36 19 50 27 WNW 1013,8 20
10.09.2019 17:00:00 15,7 13,9 40 21 - - WNW 1013,2 30
10.09.2019 16:00:00 15,3 14,2 40 21 54 29 W 1013,0 30
10.09.2019 15:00:00 16,4 14,0 40 21 50 27 WNW 1012,5 20
10.09.2019 14:00:00 16,1 14,2 36 19 - - WNW 1012,2 20
10.09.2019 13:00:00 16,4 13,4 36 19 50 27 NW 1011,6 20
10.09.2019 12:00:00 17,0 14,0 36 19 50 27 WNW 1011,3 20
10.09.2019 11:00:00 16,1 13,7 29 16 - - WNW 1011,4 20
10.09.2019 10:00:00 15,4 13,4 29 16 - - WNW 1011,5 20
10.09.2019 09:00:00 14,4 13,0 25 14 - - WNW 1011,3 20
10.09.2019 08:00:00 13,9 12,6 29 16 - - WNW 1011,0 15
10.09.2019 07:00:00 13,3 12,2 29 16 - - WNW 1011,0 15
10.09.2019 06:00:00 12,4 11,3 22 12 - - NW 1011,1 15
10.09.2019 05:00:00 12,4 11,6 22 12 - - NW 1011,1 15
10.09.2019 04:00:00 12,4 11,5 22 12 - - NW 1011,5 10
10.09.2019 03:00:00 12,5 11,4 22 12 - - NNW 1011,6 10
10.09.2019 02:00:00 12,7 11,7 18 10 - - NW 1011,9 10
10.09.2019 01:00:00 12,9 12,1 14 8 - - NW 1012,2 10
10.09.2019 00:00:00 13,4 12,6 14 8 - - NW 1012,3 12
09.09.2019 23:00:00 13,4 12,5 14 8 - - NW 1012,5 12
09.09.2019 22:00:00 13,3 12,1 14 8 - - NNW 1012,9 12
09.09.2019 21:00:00 13,5 12,6 14 8 - - NNW 1012,8 15
09.09.2019 20:00:00 13,3 12,5 11 6 - - NW 1012,8 15
09.09.2019 19:00:00 14,0 12,4 14 8 - - NE 1012,8 15
09.09.2019 18:00:00 15,3 11,8 11 6 - - E 1012,8 18
09.09.2019 17:00:00 16,2 12,4 11 6 - - ENE 1012,6 20
09.09.2019 16:00:00 16,8 11,8 14 8 - - ENE 1012,8 25
09.09.2019 15:00:00 18,2 11,6 7 4 - - NE 1013,1 25
09.09.2019 14:00:00 17,9 12,5 7 4 - - NNE 1013,4 25
09.09.2019 13:00:00 17,4 12,2 11 6 - - NNE 1013,7 25
09.09.2019 12:00:00 16,1 13,5 7 4 - - N 1014,2 18

tt = Température de l'air
td = dewpoint
ff = Vitesse du vent
fx = gusts
dd = Direction du vent
ppp = reduced air pressure
vv = visibility

stations d'obs. à proximité